HISPASAT 30W-4

Last updated on Tue Jul 26 2022 00:02:43 GMT+0000 (Coordinated Universal Time)

1 27528U 02044A 22206.38581230 -.00000228 00000+0 00000+0 0 9997 2 27528 2.8966 86.4398 0046640 90.6614 245.1969 0.98932332 72667
UTC large
Height (km)
Speed (km/s)
/
Latitude / Longitude
Inclination (degrees)
Orbital Period (minutes)
Azimuth
Elevation
Range (km)
Doppler Factor

Next 0 passes for location: London (51.5072 / 0.1276)

Sorry there are no passes over London.